Find Starlink 3517

NORAD ID: 51735 Int'l Des: 2022-016 Owner: SPXS Country: US Constellation: starlink operational
LEOCIRCULAR

現在のビュー

3D地球を読み込み中...

About Starlink 3517

Starlink 3517 (NORAD 51735) is a starlink constellation satellite (v1.5) launched Feb 21, 2022 by SPXS of US. It operates in LEO, CIRCULAR orbit with a mass of 297.00 kg.

次回通過

Passes for default location (London). Set your location on the main map for personalized predictions.

高度履歴

Loading altitude history...

軌道要素

1 51735U 22016X 26264.15438668 .00000545 00000-0 27283-4 0 9993
2 51735 53.1585 146.4639 0001228 84.9396 275.1746 15.34391910253283
Epoch: Sep 21, 2026 • Age: 10 hours

現在のステータス

高度 468.2 km
遠地点 / 近地点 N/A
速度 7.64 km/s
衛星直下点 51.91°N, 49.34°E
打ち上げ日 Feb 21, 2022
運用期間 4.5 years
タイプ internet

技術仕様

分類 Payload
質量 297.00 kg
乾燥質量 275.00 kg
長さ 0.20 m
スパン 9.00 m
形状 ? Box + pan
製造者 SPXS
バスタイプ Starlink
フェーズステータス In Orbit
所有者/国 SPXS/US

Most Searched